Showing default

IRIDE-MS2-HEO-15, 68987

Orbit data source: Space-Track

IRIDE-MS2-HEO-15, 68987 is an Italian payload satellite in SSO that was launched on Sun, 03 May 2026 UTC via an FALCON 9 launch vehicle from the Air Force Western Test Range (AFWTR). Payload-class satellites include a variety of spacecraft equipped with specific instruments for various scientific and technological missions. These include communications satellites like Starlink; space stations such as the ISS; scientific satellites like the Hubble; Earth observation satellites from companies like Planet Labs, Umbra, and HawkEye 360; GPS; miniature CubeSats for education and research; and military/defense satellites.

Loading next visibility...
Identifier
68987, 2026-100H
Orbit
SSO
Country
Flag of ITIT
Related business
Manufacturer
ArgoTec
Mission
Operational spacecraft
Bus & Motor
HAWK, Unknown motor
Mass
65 kg wet, 65 kg dry
Launch date (UTC)
2026-05-03 (2 months ago)
Launch vehicle
FALCON 9
Launch site
Air Force Western Test Range (AFWTR)
Object type
Payload
Rocket body
Debris
Shape & HBR
Unknown shape, 14.5 m
Radar Cross Section
Medium (>0.1 m² and <1 m²)

Expand to show TLE details & history
Last TLE update: 16 hours ago

TLE from 16 hours ago
0 IRIDE-MS2-HEO-15
1 68987U 26100H   26175.18297229  .00001286  00000-0  13289-3 0  9991
2 68987  97.7336  72.4990 0003128  97.2141 262.9433 14.91821951  7742
Epoch: 2026-06-24T04:23Z
TLE epoch observation values (Epoch: 2026-06-24T04:23:28.805Z)
Latitude
-0.0001°
Longitude
94.28515°
Altitude
595.566 km
Speed
7.562 km/s
True Right ascension
04h 49m 59s
True Declination
0° 00' 00"
Sunlit
Object was in daylight at epoch
Visualization orbit readout
Latitude
Unknown
Longitude
Unknown
Altitude
Unknown
Speed
Unknown
Apparent Right ascension
Unknown
Apparent Declination
Unknown
Sunlit
N/A
Visualization observer readout
Local Sidereal Time
07:37:28
Azimuth
Unknown
Elevation
Unknown
Doppler factor
Unknown
Orbital elements
Apogee altitude
591.452 km
Perigee altitude
587.093 km
Semi-major axis
6,967.409 km
Eccentricity
0.00031
Inclination
97.7336°
RAAN
72.499°
Arg. of periapsis
97.2141°
True anomaly
262.90773°
Mean anomaly
262.9433°
Eccentric anomaly
262.92551°
Mean motion
3.73195 °/min
Orbital period
96.46 mins
BSTAR
0.00013289
Loading maneuver chart data...
Computing Atmospheric mass density...
Loading historical data...
Loading historical data...
Loading historical data...
Loading historical data...
Loading historical data...
Loading historical data...
Loading historical data...

Documentation

Showing up to 5 results
|